| time (UTC) | temp C | wind direction | speed KPH | gust KPH | rain 1hr cm | rain 24hr cm | rain mn cm | humidity % | barometer mb |
| 20260507190023 | 28 | 63 | 4.8 | 19.3 | 0.00 | 0.00 | 0.00 | 79 | 1013.1 |
| 20260507184525 | 29 | 78 | 8.0 | 19.3 | 0.00 | 0.00 | 0.00 | 78 | 1013.2 |
| 20260507183033 | 30 | 71 | 6.4 | 14.5 | 0.00 | 0.00 | 0.00 | 77 | 1013.4 |
| 20260507181523 | 30 | 11 | 8.0 | 16.1 | 0.00 | 0.00 | 0.00 | 77 | 1013.6 |
| 20260507180038 | 30 | 55 | 4.8 | 12.9 | 0.00 | 0.00 | 0.00 | 76 | 1013.7 |
| 20260507174547 | 31 | 317 | 3.2 | 11.3 | 0.00 | 0.00 | 0.00 | 73 | 1013.9 |
| 20260507173051 | 31 | 120 | 1.6 | 9.7 | 0.00 | 0.00 | 0.00 | 70 | 1014.2 |
| 20260507171508 | 31 | 309 | 3.2 | 11.3 | 0.00 | 0.00 | 0.00 | 72 | 1014.3 |
| 20260507170012 | 31 | 314 | 3.2 | 12.9 | 0.00 | 0.00 | 0.00 | 72 | 1014.5 |
| 20260507164529 | 31 | 43 | 1.6 | 8.0 | 0.00 | 0.00 | 0.00 | 73 | 1014.8 |
| 20260507163041 | 31 | 124 | 1.6 | 11.3 | 0.00 | 0.00 | 0.00 | 72 | 1014.9 |
| 20260507161550 | 31 | 344 | 0.0 | 8.0 | 0.00 | 0.00 | 0.00 | 72 | 1015.2 |
| 20260507160052 | 31 | 341 | 1.6 | 6.4 | 0.00 | 0.00 | 0.00 | 70 | 1015.3 |
| 20260507154607 | 31 | 319 | 1.6 | 4.8 | 0.00 | 0.00 | 0.00 | 70 | 1015.3 |
| 20260507153101 | 31 | 278 | 1.6 | 6.4 | 0.00 | 0.00 | 0.00 | 69 | 1015.4 |
| 20260507151519 | 30 | 322 | 1.6 | 8.0 | 0.00 | 0.00 | 0.00 | 70 | 1015.4 |
| 20260507150031 | 30 | 300 | 1.6 | 9.7 | 0.00 | 0.00 | 0.00 | 70 | 1015.5 |
| 20260507144547 | 30 | 319 | 0.0 | 6.4 | 0.00 | 0.00 | 0.00 | 70 | 1015.4 |
| 20260507143111 | 30 | 50 | 1.6 | 6.4 | 0.00 | 0.00 | 0.00 | 71 | 1015.4 |
| 20260507141516 | 30 | 325 | 3.2 | 6.4 | 0.00 | 0.00 | 0.00 | 70 | 1015.4 |
| 20260507140130 | 29 | 57 | 1.6 | 6.4 | 0.00 | 0.00 | 0.00 | 73 | 1015.5 |
| 20260507134525 | 29 | 75 | 1.6 | 6.4 | 0.00 | 0.00 | 0.00 | 72 | 1015.5 |
| 20260507133045 | 28 | 65 | 1.6 | 6.4 | 0.00 | 0.00 | 0.00 | 73 | 1015.3 |
| 20260507131611 | 28 | 321 | 0.0 | 6.4 | 0.00 | 0.00 | 0.00 | 75 | 1015.3 |
| 20260507130017 | 28 | 70 | 3.2 | 4.8 | 0.00 | 0.00 | 0.00 | 74 | 1015.2 |
| 20260507124513 | 27 | 23 | 1.6 | 6.4 | 0.00 | 0.00 | 0.00 | 76 | 1015.2 |
| 20260507123016 | 27 | 71 | 0.0 | 4.8 | 0.00 | 0.00 | 0.00 | 77 | 1015.0 |
| 20260507121524 | 27 | 55 | 0.0 | 8.0 | 0.00 | 0.00 | 0.00 | 79 | 1014.8 |
| 20260507120033 | 27 | 75 | 1.6 | 4.8 | 0.00 | 0.00 | 0.00 | 77 | 1014.5 |
| 20260507114536 | 27 | 75 | 0.0 | 4.8 | 0.00 | 0.00 | 0.00 | 80 | 1014.4 |
| 20260507113043 | 26 | 55 | 0.0 | 3.2 | 0.00 | 0.00 | 0.00 | 81 | 1014.2 |
| 20260507111543 | 26 | 285 | 0.0 | 3.2 | 0.00 | 0.00 | 0.00 | 80 | 1014.3 |
| 20260507110054 | 25 | 276 | 1.6 | 4.8 | 0.00 | 0.00 | 0.00 | 84 | 1014.3 |
| 20260507104511 | 25 | 269 | 1.6 | 3.2 | 0.00 | 0.00 | 0.00 | 82 | 1014.3 |
| 20260507103025 | 25 | 266 | 0.0 | 0.0 | 0.00 | 0.00 | 0.00 | 80 | 1014.1 |
| 20260507101531 | 24 | 269 | 0.0 | 3.2 | 0.00 | 0.00 | 0.00 | 80 | 1014.1 |
| 20260507100046 | 24 | 89 | 0.0 | 3.2 | 0.00 | 0.00 | 0.00 | 78 | 1013.9 |
| 20260507094542 | 25 | 94 | 0.0 | 8.0 | 0.00 | 0.00 | 0.00 | 79 | 1013.6 |
| 20260507093051 | 25 | 73 | 1.6 | 8.0 | 0.00 | 0.00 | 0.00 | 78 | 1013.4 |
| 20260507091552 | 25 | 82 | 1.6 | 6.4 | 0.00 | 0.00 | 0.00 | 79 | 1013.3 |
| 20260507090010 | 24 | 108 | 1.6 | 6.4 | 0.00 | 0.00 | 0.00 | 81 | 1013.4 |
| 20260507084511 | 24 | 75 | 1.6 | 6.4 | 0.00 | 0.00 | 0.00 | 84 | 1013.5 |
| 20260507083022 | 24 | 79 | 1.6 | 6.4 | 0.00 | 0.00 | 0.00 | 88 | 1013.7 |
| 20260507081532 | 24 | 116 | 1.6 | 3.2 | 0.00 | 0.00 | 0.00 | 90 | 1013.7 |
| 20260507080038 | 24 | 91 | 1.6 | 6.4 | 0.00 | 0.00 | 0.00 | 90 | 1013.7 |
| 20260507074542 | 24 | 91 | 0.0 | 1.6 | 0.00 | 0.00 | 0.00 | 89 | 1013.5 |
| 20260507073044 | 24 | 73 | 0.0 | 1.6 | 0.00 | 0.00 | 0.00 | 88 | 1013.6 |
| 20260507071600 | 25 | 278 | 0.0 | 0.0 | 0.00 | 0.00 | 0.00 | 87 | 1013.7 |
| 20260507070055 | 25 | 262 | 0.0 | 4.8 | 0.00 | 0.00 | 0.00 | 86 | 1013.9 |
| 20260507064553 | 25 | 180 | 1.6 | 4.8 | 0.00 | 0.00 | 0.00 | 85 | 1013.9 |
| 20260507063001 | 25 | 250 | 0.0 | 6.4 | 0.00 | 0.00 | 0.00 | 83 | 1014.1 |
| 20260507061604 | 25 | 177 | 0.0 | 3.2 | 0.00 | 0.00 | 0.00 | 83 | 1014.2 |
| 20260507060056 | 25 | 247 | 0.0 | 4.8 | 0.00 | 0.00 | 0.00 | 83 | 1014.3 |
| 20260507054508 | 25 | 184 | 0.0 | 4.8 | 0.00 | 0.00 | 0.00 | 84 | 1014.7 |
| 20260507053009 | 25 | 174 | 0.0 | 8.0 | 0.00 | 0.00 | 0.00 | 86 | 1014.8 |
| 20260507051533 | 25 | 241 | 1.6 | 6.4 | 0.00 | 0.00 | 0.00 | 87 | 1015.0 |
| 20260507050019 | 25 | 274 | 1.6 | 6.4 | 0.00 | 0.00 | 0.00 | 88 | 1015.2 |
| 20260507044537 | 26 | 200 | 0.0 | 4.8 | 0.00 | 0.00 | 0.00 | 89 | 1015.4 |
| 20260507043038 | 26 | 211 | 0.0 | 3.2 | 0.00 | 0.00 | 0.00 | 89 | 1015.6 |
| 20260507041548 | 26 | 207 | 0.0 | 3.2 | 0.00 | 0.00 | 0.00 | 88 | 1015.9 |
| 20260507040109 | 26 | 252 | 0.0 | 1.6 | 0.00 | 0.00 | 0.00 | 88 | 1016.0 |
| 20260507034509 | 26 | 271 | 0.0 | 6.4 | 0.00 | 0.00 | 0.00 | 88 | 1016.1 |
| 20260507033037 | 26 | 64 | 3.2 | 9.7 | 0.00 | 0.00 | 0.00 | 88 | 1016.2 |
| 20260507031533 | 26 | 55 | 4.8 | 9.7 | 0.00 | 0.00 | 0.00 | 88 | 1016.2 |
| 20260507030034 | 26 | 66 | 6.4 | 12.9 | 0.00 | 0.00 | 0.00 | 88 | 1016.4 |
| 20260507024544 | 26 | 31 | 3.2 | 9.7 | 0.00 | 0.00 | 0.00 | 88 | 1016.3 |
| 20260507023044 | 26 | 54 | 4.8 | 14.5 | 0.00 | 0.00 | 0.00 | 88 | 1016.3 |
| 20260507021545 | 26 | 63 | 4.8 | 12.9 | 0.00 | 0.00 | 0.00 | 87 | 1016.2 |
| 20260507020046 | 26 | 18 | 6.4 | 14.5 | 0.00 | 0.00 | 0.00 | 87 | 1016.0 |
| 20260507014554 | 26 | 64 | 4.8 | 11.3 | 0.00 | 0.00 | 0.00 | 87 | 1015.8 |
| 20260507013057 | 26 | 39 | 6.4 | 12.9 | 0.00 | 0.00 | 0.00 | 87 | 1015.8 |
| 20260507011603 | 26 | 65 | 8.0 | 14.5 | 0.00 | 0.00 | 0.00 | 87 | 1015.6 |
| 20260507010018 | 26 | 49 | 4.8 | 14.5 | 0.00 | 0.00 | 0.00 | 86 | 1015.5 |
| 20260507004512 | 26 | 39 | 4.8 | 12.9 | 0.00 | 0.00 | 0.00 | 85 | 1015.4 |
| 20260507003011 | 27 | 58 | 3.2 | 9.7 | 0.00 | 0.00 | 0.00 | 85 | 1015.5 |
| 20260507001548 | 27 | 65 | 3.2 | 8.0 | 0.00 | 0.00 | 0.00 | 84 | 1015.3 |
| 20260507000104 | 27 | 30 | 3.2 | 9.7 | 0.00 | 0.00 | 0.00 | 83 | 1015.2 |
| 20260506234601 | 27 | 48 | 3.2 | 11.3 | 0.00 | 0.00 | 0.00 | 81 | 1015.1 |
| 20260506233103 | 27 | 352 | 3.2 | 11.3 | 0.00 | 0.00 | 0.00 | 81 | 1014.9 |
| 20260506231603 | 27 | 54 | 1.6 | 9.7 | 0.00 | 0.00 | 0.00 | 81 | 1014.8 |
| 20260506230002 | 27 | 53 | 3.2 | 9.7 | 0.00 | 0.00 | 0.00 | 81 | 1014.5 |
| 20260506224511 | 27 | 49 | 3.2 | 14.5 | 0.00 | 0.00 | 0.00 | 81 | 1014.3 |
| 20260506223012 | 27 | 58 | 4.8 | 12.9 | 0.00 | 0.00 | 0.00 | 81 | 1014.1 |
| 20260506221530 | 27 | 51 | 3.2 | 11.3 | 0.00 | 0.00 | 0.00 | 80 | 1014.0 |
| 20260506220038 | 28 | 65 | 3.2 | 9.7 | 0.00 | 0.00 | 0.00 | 79 | 1014.0 |
| 20260506214549 | 28 | 60 | 3.2 | 8.0 | 0.00 | 0.00 | 0.00 | 79 | 1013.9 |
| 20260506213051 | 28 | 58 | 3.2 | 9.7 | 0.00 | 0.00 | 0.00 | 78 | 1013.7 |
| 20260506211549 | 29 | 52 | 4.8 | 11.3 | 0.00 | 0.00 | 0.00 | 75 | 1013.5 |
| 20260506210012 | 30 | 313 | 0.0 | 9.7 | 0.00 | 0.00 | 0.00 | 74 | 1013.6 |
| 20260506204515 | 30 | 58 | 0.0 | 9.7 | 0.00 | 0.00 | 0.00 | 73 | 1013.5 |
| 20260506203020 | 30 | 51 | 1.6 | 11.3 | 0.00 | 0.00 | 0.00 | 71 | 1013.5 |
| 20260506201528 | 30 | 37 | 3.2 | 9.7 | 0.00 | 0.00 | 0.00 | 69 | 1013.6 |
| 20260506200028 | 31 | 70 | 1.6 | 6.4 | 0.00 | 0.00 | 0.00 | 67 | 1013.8 |
| 20260506194532 | 30 | 314 | 3.2 | 9.7 | 0.00 | 0.00 | 0.00 | 68 | 1013.8 |
| 20260506193034 | 31 | 74 | 3.2 | 9.7 | 0.00 | 0.00 | 0.00 | 65 | 1014.0 |
| 20260506191545 | 31 | 34 | 1.6 | 6.4 | 0.00 | 0.00 | 0.00 | 66 | 1014.0 |